Weather in Medvezhye

Russia / Kurgan Oblast     55°17′18″N   65°57′41″E
temp.,
°C
wind,
m/s
gust,
m/s
humid.,
%
clouds,
%
prec.,
mm/h
press.,
hPa
HPBL,
m
5 march, fri
fri523:00−9wsw5128971 0.0 1001227
02:00−12sw48900 0.0 1002129
05:00−9ssw7159141 0.0 1001459
08:00−5ssw101794100 0.4 998878
11:000wsw101584100 1.5 9981279
14:000wsw9157847 0.0 10001254
17:00−1sw8148673 0.1 1003761
20:00−2sw71396100 0.8 1001812
6 march, sat
sat623:00−1sw91596100 2.6 1000900
02:00−4nw61093100 1.1 1000355
05:00−6wnw6119294 1.5 1004494
08:00−12w6119126 0.0 1007250
11:00−11w599013 0.0 1009274
14:00−8wsw610850 0.0 1010519
17:00−9wsw510871 0.0 1010473
20:00−12sw612902 0.0 1011222
7 march, sun
sun723:00−13wsw512881 0.0 1013238
02:00−14wsw479368 0.0 1013107
05:00−16sw339458 0.0 101425
08:00−14ssw2393100 0.0 101435
11:00−10se3588100 0.0 1011237
14:00−8e6995100 1.2 1006415
17:00−7e71195100 4.9 1000512
20:00−5ene3598100 3.8 997158
8 march, mon
mon823:00−9nw81391100 6.0 998488
02:00−12wnw61293100 0.1 1003395
05:00−15wnw5119596 0.1 1007230
08:00−19w479739 0.0 1009117
11:00−15wsw479320 0.0 1011260
14:00−12sw598877 0.0 1012450
17:00−11ssw6128689 0.0 1011540
20:00−9ssw71492100 0.4 1010766
9 march, tue
tue923:00−8ssw81692100 0.7 1009690
02:00−8sw7148866 0.1 1010377
05:00−11ssw5109446 0.1 1011177
08:00−8s8139386 0.1 1009415
11:00−7s10179194 0.4 1006719
14:00−5ssw111887100 0.3 10041234
17:00−6sw11197182 0.4 10041131
20:00−7wsw1018782 0.0 1005917